ARGUS-02

Last updated on Wed Mar 11 2020 00:02:12 GMT+0000 (Coordinated Universal Time)

1 45256U 98067QZ 20070.18630911 .00004759 00000-0 91403-4 0 9996 2 45256 51.6415 118.2225 0008062 356.1519 3.9407 15.49963918 3105
UTC large
Height (km)
Speed (km/s)
/
Latitude / Longitude
Inclination (degrees)
Orbital Period (minutes)
Azimuth
Elevation
Range (km)
Doppler Factor

Next 0 passes for location: London (51.5072 / 0.1276)

Sorry there are no passes over London.